Charlotte, NC

8:37 AM EST on February 07, 2016 (GMT -0500)
Charlotte-Douglas International

Weather History for KCLT - September, 2012

Change the Weather History Date:

Tuesday, September 18, 2012

  Actual Average Record
Temperature  
Mean Temperature 70 °F 70 °F  
Max Temperature 76 °F 81 °F 99 °F (1896)
Min Temperature 63 °F 60 °F 48 °F (1999)
Degree Days  
Heating Degree Days 0 1  
Month to date heating degree days 0 3  
Since 1 July heating degree days 0 3  
Cooling Degree Days 5 6  
Month to date cooling degree days 169 147  
Year to date cooling degree days 1719 1424  
Growing Degree Days 20 (Base 50)    
Moisture  
Dew Point 69 °F    
Average Humidity 87    
Maximum Humidity 100    
Minimum Humidity 74    
Precipitation  
Precipitation 0.54 in 0.11 in 4.84 in (1928)
Month to date precipitation 4.21 1.93  
Year to date precipitation 27.38 30.53  
Snow  
Snow 0.00 in 0.00 in 0.00 in ()
Month to date snowfall 0.0 0.0  
Since 1 July snowfall 0.0 0.0  
Since 1 September snowfall 0.0 0.0  
Snow Depth 0.00 in    
Sea Level Pressure  
Sea Level Pressure 29.77 in    
Wind  
Wind Speed 10 mph (SSW)    
Max Wind Speed 24 mph    
Max Gust Speed 29 mph    
Visibility 8 miles    
Events Rain    
T = Trace of Precipitation, MM = Missing Value Source: NWS Daily Summary

Daily Weather History Graph

Daily Weather History Graph

Search for Another Location

Airport or City:

Trip Planner

Search our weather history database for the weather conditions in past years. The results will help you decide how hot, cold, wet, or windy it might be!

Date:

Astronomy

Sep. 18, 2012 Rise Set
Actual Time 7:09 AM EDT 7:25 PM EDT
Civil Twilight 6:43 AM EDT 7:51 PM EDT
Nautical Twilight 6:14 AM EDT 8:20 PM EDT
Astronomical Twilight 5:43 AM EDT 8:50 PM EDT
Moon 9:58 AM EDT (9/18) 8:57 PM EDT (9/18)
Length of Visible Light 13h 07m
Length of Day
12h 16m
Waxing Crescent, 9% of the Moon is Illuminated
Sep 18
Waxing Crescent
Sep 22
First Quarter
Sep 29
Full
Oct 8
Last Quarter
Oct 15
New

Hourly Weather History & Observations

Time (EDT) Temp. Dew Point Humidity Pressure Visibility Wind Dir Wind Speed Gust Speed Precip Events Conditions
12:52 AM 71.1 °F 68.0 °F 90% 29.87 in 10.0 mi SSE 15.0 mph - N/A   Mostly Cloudy
1:31 AM 71.6 °F 68.0 °F 88% 29.88 in 10.0 mi SSE 16.1 mph - N/A   Overcast
1:52 AM 71.1 °F 68.0 °F 90% 29.85 in 10.0 mi South 15.0 mph - N/A   Overcast
2:52 AM 72.0 °F 68.0 °F 87% 29.82 in 10.0 mi South 13.8 mph 23.0 mph N/A   Overcast
3:52 AM 72.0 °F 69.1 °F 91% 29.79 in 10.0 mi South 18.4 mph 25.3 mph 0.00 in Rain Light Rain
4:52 AM 72.0 °F 69.1 °F 91% 29.77 in 10.0 mi South 17.3 mph - 0.01 in Rain Light Rain
5:52 AM 72.0 °F 70.0 °F 93% 29.76 in 4.0 mi South 13.8 mph - 0.03 in Rain Rain
5:55 AM 71.6 °F 69.8 °F 94% 29.79 in 4.0 mi South 16.1 mph - 0.01 in Rain Rain
6:31 AM 71.6 °F 69.8 °F 94% 29.77 in 2.5 mi South 13.8 mph - 0.21 in Rain Heavy Rain
6:37 AM 73.4 °F 69.8 °F 88% 29.77 in 6.0 mi South 19.6 mph 26.5 mph 0.21 in Rain Light Rain
6:52 AM 73.0 °F 70.0 °F 90% 29.75 in 10.0 mi South 15.0 mph 27.6 mph 0.21 in Rain Light Rain
7:26 AM 73.4 °F 69.8 °F 88% 29.78 in 10.0 mi South 17.3 mph 27.6 mph 0.01 in Rain Light Rain
7:52 AM 73.4 °F 69.8 °F 88% 29.78 in 10.0 mi SSW 16.1 mph 21.9 mph N/A   Overcast
8:52 AM 73.9 °F 70.0 °F 87% 29.75 in 10.0 mi South 13.8 mph 23.0 mph N/A   Overcast
9:52 AM 75.0 °F 70.0 °F 84% 29.75 in 10.0 mi South 15.0 mph 23.0 mph N/A   Overcast
10:52 AM 73.9 °F 70.0 °F 87% 29.75 in 7.0 mi SSW 15.0 mph 20.7 mph 0.02 in Rain Light Rain
11:11 AM 73.4 °F 69.8 °F 88% 29.78 in 5.0 mi SSW 12.7 mph - 0.04 in Rain Rain
11:52 AM 75.9 °F 72.0 °F 87% 29.75 in 10.0 mi SSW 12.7 mph 20.7 mph 0.06 in Rain Light Rain
12:52 PM 75.9 °F 71.1 °F 85% 29.74 in 5.0 mi SW 10.4 mph 19.6 mph 0.01 in   Haze
12:54 PM 75.2 °F 71.6 °F 89% 29.77 in 1.0 mi West 9.2 mph 19.6 mph 0.00 in Rain Light Rain
12:56 PM 75.2 °F 71.6 °F 89% 29.77 in 0.8 mi West 10.4 mph - 0.08 in Rain Heavy Rain
1:07 PM 73.4 °F 71.6 °F 94% 29.77 in 5.0 mi SW 9.2 mph 18.4 mph N/A Rain Light Rain
1:52 PM 75.0 °F 70.0 °F 84% 29.74 in 10.0 mi WSW 5.8 mph 17.3 mph 0.19 in   Overcast
2:49 PM 75.2 °F 66.2 °F 73% 29.76 in 10.0 mi SW 15.0 mph 20.7 mph N/A   Overcast
2:52 PM 75.9 °F 66.0 °F 71% 29.74 in 10.0 mi SW 10.4 mph 20.7 mph N/A   Overcast
3:52 PM 75.9 °F 66.0 °F 71% 29.73 in 10.0 mi WSW 6.9 mph - N/A   Overcast
4:52 PM 75.0 °F 66.9 °F 76% 29.73 in 10.0 mi SSW 4.6 mph - N/A   Mostly Cloudy
5:52 PM 75.0 °F 66.9 °F 76% 29.71 in 10.0 mi South 4.6 mph - N/A   Overcast
6:52 PM 73.9 °F 68.0 °F 82% 29.73 in 10.0 mi SSW 4.6 mph - N/A   Mostly Cloudy
7:52 PM 72.0 °F 68.0 °F 87% 29.76 in 10.0 mi WNW 4.6 mph - N/A   Mostly Cloudy
8:52 PM 68.0 °F 66.0 °F 93% 29.78 in 10.0 mi Calm Calm - N/A   Scattered Clouds
9:52 PM 68.0 °F 64.9 °F 90% 29.80 in 10.0 mi West 3.5 mph - N/A   Scattered Clouds
10:52 PM 66.9 °F 64.9 °F 93% 29.81 in 10.0 mi NW 3.5 mph - N/A   Scattered Clouds
11:52 PM 64.9 °F 64.0 °F 97% 29.84 in 5.0 mi Calm Calm - N/A   Partly Cloudy